| time (UTC) | temp F | wind direction | speed knots | gust knots | rain 1hr in | rain 24hr in | rain mn in | humidity % | barometer mb |
| 20260505111721 | 49 | 341 | 0.9 | 3.5 | 0.00 | 0.00 | 0.00 | 93 | 1009.3 |
| 20260505111653 | 61 | 302 | 0.0 | 4.3 | 0.00 | 0.00 | 0.00 | 54 | 1007.3 |
| 20260505111149 | 61 | 211 | 3.5 | 5.2 | 0.00 | 0.00 | 0.00 | 53 | 1007.1 |
| 20260505110820 | 46 | 337 | 0.0 | 0.0 | 0.00 | 0.00 | 0.00 | 93 | 1008.9 |
| 20260505110646 | 62 | 284 | 2.6 | 7.8 | 0.00 | 0.00 | 0.00 | 53 | 1006.9 |
| 20260505110143 | 62 | 232 | 4.3 | 10.4 | 0.00 | 0.00 | 0.00 | 52 | 1006.9 |
| 20260505102119 | 58 | 241 | 3.5 | 7.0 | 0.00 | 0.00 | 0.00 | 58 | 1007.1 |
| 20260505102019 | 41 | 22 | 0.0 | 0.0 | 0.00 | 0.00 | 0.00 | 94 | 1008.9 |
| 20260505101618 | 58 | 244 | 5.2 | 8.7 | 0.00 | 0.00 | 0.00 | 57 | 1007.2 |
| 20260505101113 | 58 | 277 | 3.5 | 5.2 | 0.00 | 0.00 | 0.00 | 59 | 1007.1 |
| 20260505100610 | 58 | 226 | 4.3 | 7.0 | 0.00 | 0.00 | 0.00 | 58 | 1007.2 |
| 20260505100107 | 57 | 267 | 3.5 | 5.2 | 0.00 | 0.00 | 0.00 | 59 | 1007.0 |
| 20260505100023 | 41 | 348 | 0.0 | 2.6 | 0.00 | 0.00 | 0.00 | 94 | 1008.9 |
| 20260505095603 | 57 | 225 | 1.7 | 7.0 | 0.00 | 0.00 | 0.00 | 60 | 1007.1 |
| 20260505095100 | 57 | 258 | 3.5 | 9.6 | 0.00 | 0.00 | 0.00 | 60 | 1007.2 |
| 20260505094556 | 56 | 248 | 3.5 | 5.2 | 0.00 | 0.00 | 0.00 | 61 | 1007.2 |
| 20260505094052 | 56 | 273 | 1.7 | 2.6 | 0.00 | 0.00 | 0.00 | 62 | 1007.3 |
| 20260505094037 | 41 | 247 | 0.0 | 0.0 | 0.00 | 0.00 | 0.00 | 94 | 1008.6 |
| 20260505093549 | 56 | 239 | 2.6 | 3.5 | 0.00 | 0.00 | 0.00 | 61 | 1007.2 |
| 20260505093046 | 56 | 248 | 1.7 | 3.5 | 0.00 | 0.00 | 0.00 | 61 | 1006.9 |
| 20260505093021 | 41 | 247 | 0.0 | 0.0 | 0.00 | 0.00 | 0.00 | 93 | 1008.6 |
| 20260505092544 | 56 | 238 | 5.2 | 5.2 | 0.00 | 0.00 | 0.00 | 61 | 1006.9 |
| 20260505092042 | 56 | 262 | 0.9 | 4.3 | 0.00 | 0.00 | 0.00 | 60 | 1006.9 |
| 20260505092022 | 40 | 248 | 0.0 | 0.9 | 0.00 | 0.00 | 0.00 | 93 | 1008.6 |
| 20260505091538 | 57 | 243 | 6.1 | 6.1 | 0.00 | 0.00 | 0.00 | 60 | 1007.2 |
| 20260505091037 | 57 | 261 | 5.2 | 5.2 | 0.00 | 0.00 | 0.00 | 60 | 1007.1 |
| 20260505091021 | 40 | 22 | 0.0 | 1.7 | 0.00 | 0.00 | 0.00 | 93 | 1008.6 |
| 20260505090534 | 57 | 260 | 3.5 | 7.0 | 0.00 | 0.00 | 0.00 | 59 | 1007.1 |
| 20260505090032 | 57 | 232 | 3.5 | 7.8 | 0.00 | 0.00 | 0.00 | 59 | 1006.9 |
| 20260505085530 | 57 | 182 | 6.1 | 8.7 | 0.00 | 0.00 | 0.00 | 59 | 1007.1 |
| 20260505085028 | 57 | 247 | 1.7 | 5.2 | 0.00 | 0.00 | 0.00 | 59 | 1007.1 |
| 20260505085021 | 39 | 22 | 0.0 | 0.0 | 0.00 | 0.00 | 0.00 | 93 | 1008.8 |
| 20260505084526 | 57 | 278 | 2.6 | 7.8 | 0.00 | 0.00 | 0.00 | 59 | 1007.1 |
| 20260505084119 | 39 | 22 | 0.0 | 0.0 | 0.00 | 0.00 | 0.00 | 93 | 1008.9 |
| 20260505084023 | 57 | 188 | 5.2 | 6.1 | 0.00 | 0.00 | 0.00 | 58 | 1007.0 |
| 20260505083520 | 57 | 253 | 4.3 | 10.4 | 0.00 | 0.00 | 0.00 | 58 | 1007.2 |
| 20260505083121 | 39 | 22 | 0.0 | 1.7 | 0.00 | 0.00 | 0.00 | 93 | 1008.9 |
| 20260505083017 | 57 | 241 | 5.2 | 10.4 | 0.00 | 0.00 | 0.00 | 58 | 1007.3 |
| 20260505082512 | 57 | 228 | 3.5 | 13.9 | 0.00 | 0.00 | 0.00 | 58 | 1007.0 |
| 20260505082221 | 38 | 22 | 0.0 | 1.7 | 0.00 | 0.00 | 0.00 | 93 | 1008.9 |
| 20260505082009 | 57 | 267 | 3.5 | 5.2 | 0.00 | 0.00 | 0.00 | 59 | 1007.2 |
| 20260505081506 | 57 | 223 | 3.5 | 7.8 | 0.00 | 0.00 | 0.00 | 58 | 1007.2 |
| 20260505081222 | 38 | 292 | 0.0 | 0.0 | 0.00 | 0.00 | 0.00 | 93 | 1008.9 |
| 20260505081003 | 58 | 291 | 7.0 | 7.8 | 0.00 | 0.00 | 0.00 | 58 | 1007.5 |
| 20260505080459 | 57 | 236 | 5.2 | 9.6 | 0.00 | 0.00 | 0.00 | 58 | 1007.3 |
| 20260505080319 | 38 | 292 | 0.0 | 0.0 | 0.00 | 0.00 | 0.00 | 93 | 1008.9 |
| 20260505075955 | 57 | 253 | 3.5 | 5.2 | 0.00 | 0.00 | 0.00 | 59 | 1007.2 |
| 20260505075451 | 57 | 268 | 2.6 | 4.3 | 0.00 | 0.00 | 0.00 | 60 | 1007.3 |
| 20260505075321 | 37 | 292 | 0.0 | 0.0 | 0.00 | 0.00 | 0.00 | 92 | 1008.9 |
| 20260505074949 | 57 | 231 | 4.3 | 7.0 | 0.00 | 0.00 | 0.00 | 59 | 1007.3 |
| 20260505074446 | 57 | 253 | 5.2 | 5.2 | 0.00 | 0.00 | 0.00 | 59 | 1007.3 |
| 20260505074321 | 37 | 292 | 0.0 | 0.0 | 0.00 | 0.00 | 0.00 | 92 | 1008.9 |
| 20260505073943 | 57 | 250 | 2.6 | 7.8 | 0.00 | 0.00 | 0.00 | 59 | 1007.2 |
| 20260505073441 | 57 | 266 | 5.2 | 5.2 | 0.00 | 0.00 | 0.00 | 61 | 1007.1 |
| 20260505073322 | 38 | 292 | 0.0 | 0.0 | 0.00 | 0.00 | 0.00 | 93 | 1008.9 |
| 20260505072938 | 57 | 284 | 2.6 | 6.1 | 0.00 | 0.00 | 0.00 | 60 | 1007.2 |
| 20260505072434 | 57 | 265 | 1.7 | 6.1 | 0.00 | 0.00 | 0.00 | 61 | 1007.3 |
| 20260505072420 | 38 | 292 | 0.0 | 0.0 | 0.00 | 0.00 | 0.00 | 93 | 1008.9 |
| 20260505071930 | 57 | 233 | 3.5 | 7.8 | 0.00 | 0.00 | 0.00 | 60 | 1007.1 |
| 20260505071519 | 37 | 292 | 0.0 | 0.0 | 0.00 | 0.00 | 0.00 | 92 | 1008.9 |
| 20260505071426 | 57 | 257 | 1.7 | 7.0 | 0.00 | 0.00 | 0.00 | 61 | 1007.2 |
| 20260505070925 | 56 | 258 | 3.5 | 7.8 | 0.00 | 0.00 | 0.00 | 61 | 1007.2 |
| 20260505070522 | 38 | 292 | 0.0 | 0.0 | 0.00 | 0.00 | 0.00 | 93 | 1008.9 |
| 20260505070421 | 56 | 252 | 4.3 | 7.8 | 0.00 | 0.00 | 0.00 | 61 | 1007.2 |
| 20260505065916 | 56 | 256 | 3.5 | 7.0 | 0.00 | 0.00 | 0.00 | 62 | 1007.0 |
| 20260505065520 | 38 | 292 | 0.0 | 0.0 | 0.00 | 0.00 | 0.00 | 93 | 1008.9 |
| 20260505065413 | 56 | 259 | 2.6 | 5.2 | 0.00 | 0.00 | 0.00 | 63 | 1007.1 |
| 20260505064910 | 56 | 272 | 1.7 | 3.5 | 0.00 | 0.00 | 0.00 | 63 | 1007.2 |
| 20260505064407 | 55 | 237 | 3.5 | 6.1 | 0.00 | 0.00 | 0.00 | 64 | 1007.2 |
| 20260505063906 | 55 | 246 | 3.5 | 7.0 | 0.00 | 0.00 | 0.00 | 63 | 1007.2 |
| 20260505063521 | 38 | 292 | 0.0 | 0.0 | 0.00 | 0.00 | 0.00 | 92 | 1008.9 |
| 20260505063402 | 55 | 227 | 1.7 | 7.8 | 0.00 | 0.00 | 0.00 | 64 | 1007.2 |
| 20260505062858 | 54 | 268 | 3.5 | 7.8 | 0.00 | 0.00 | 0.00 | 66 | 1007.1 |
| 20260505062520 | 38 | 292 | 0.0 | 0.0 | 0.00 | 0.00 | 0.00 | 92 | 1008.9 |
| 20260505062355 | 53 | 280 | 2.6 | 4.3 | 0.00 | 0.00 | 0.00 | 68 | 1007.3 |
| 20260505061852 | 53 | 256 | 3.5 | 7.0 | 0.00 | 0.00 | 0.00 | 69 | 1007.0 |
| 20260505061522 | 39 | 292 | 0.0 | 0.0 | 0.00 | 0.00 | 0.00 | 93 | 1008.9 |
| 20260505061351 | 52 | 256 | 1.7 | 3.5 | 0.00 | 0.00 | 0.00 | 71 | 1007.2 |
| 20260505060848 | 51 | 245 | 0.9 | 2.6 | 0.00 | 0.00 | 0.00 | 74 | 1007.0 |
| 20260505060344 | 50 | 174 | 0.9 | 1.7 | 0.00 | 0.00 | 0.00 | 76 | 1007.2 |
| 20260505055840 | 50 | 256 | 0.0 | 1.7 | 0.00 | 0.00 | 0.00 | 77 | 1007.1 |
| 20260505055620 | 38 | 292 | 0.0 | 0.0 | 0.00 | 0.00 | 0.00 | 92 | 1008.9 |
| 20260505055336 | 50 | 135 | 0.0 | 2.6 | 0.00 | 0.00 | 0.00 | 76 | 1007.1 |
| 20260505054834 | 49 | 290 | 1.7 | 1.7 | 0.00 | 0.00 | 0.00 | 78 | 1006.9 |
| 20260505054621 | 39 | 292 | 0.0 | 0.0 | 0.00 | 0.00 | 0.00 | 93 | 1008.9 |
| 20260505054331 | 48 | 66 | 0.0 | 1.7 | 0.00 | 0.00 | 0.00 | 81 | 1007.2 |
| 20260505053829 | 46 | 76 | 0.0 | 0.9 | 0.00 | 0.00 | 0.00 | 86 | 1007.1 |
| 20260505053621 | 40 | 292 | 0.0 | 0.0 | 0.00 | 0.00 | 0.00 | 93 | 1008.9 |
| 20260505053326 | 46 | 86 | 0.9 | 1.7 | 0.00 | 0.00 | 0.00 | 86 | 1007.1 |
| 20260505052822 | 46 | 66 | 0.0 | 1.7 | 0.00 | 0.00 | 0.00 | 86 | 1007.2 |
| 20260505052620 | 40 | 292 | 0.0 | 0.0 | 0.00 | 0.00 | 0.00 | 93 | 1008.9 |
| 20260505052319 | 46 | 89 | 1.7 | 1.7 | 0.00 | 0.00 | 0.00 | 87 | 1007.0 |
| 20260505051817 | 46 | 105 | 0.9 | 1.7 | 0.00 | 0.00 | 0.00 | 87 | 1007.0 |
| 20260505051621 | 41 | 292 | 0.0 | 0.0 | 0.00 | 0.00 | 0.00 | 93 | 1008.9 |
| 20260505051314 | 46 | 99 | 1.7 | 1.7 | 0.00 | 0.00 | 0.00 | 86 | 1007.0 |
| 20260505050812 | 46 | 76 | 0.0 | 2.6 | 0.00 | 0.00 | 0.00 | 84 | 1007.1 |
| 20260505050310 | 47 | 100 | 1.7 | 1.7 | 0.00 | 0.00 | 0.00 | 82 | 1007.1 |
| 20260505041740 | 48 | 85 | 0.9 | 1.7 | 0.00 | 0.00 | 0.00 | 80 | 1006.9 |
| 20260505041620 | 42 | 292 | 0.0 | 0.0 | 0.00 | 0.00 | 0.00 | 92 | 1008.6 |
| 20260505041237 | 49 | 87 | 0.0 | 1.7 | 0.00 | 0.00 | 0.00 | 79 | 1006.9 |
| 20260505040734 | 49 | 116 | 0.0 | 1.7 | 0.00 | 0.00 | 0.00 | 79 | 1007.0 |
| 20260505040232 | 48 | 299 | 0.0 | 1.7 | 0.00 | 0.00 | 0.00 | 81 | 1006.9 |
| 20260505035729 | 48 | 245 | 0.0 | 1.7 | 0.00 | 0.00 | 0.00 | 83 | 1006.6 |
| 20260505035624 | 42 | 292 | 0.0 | 0.0 | 0.00 | 0.00 | 0.00 | 92 | 1008.6 |
| 20260505035224 | 47 | 112 | 0.9 | 1.7 | 0.00 | 0.00 | 0.00 | 86 | 1006.7 |
| 20260505034722 | 46 | 115 | 0.0 | 1.7 | 0.00 | 0.00 | 0.00 | 89 | 1006.8 |
| 20260505034624 | 43 | 292 | 0.0 | 0.0 | 0.00 | 0.00 | 0.00 | 92 | 1008.6 |
| 20260505034218 | 46 | 269 | 0.0 | 0.0 | 0.00 | 0.00 | 0.00 | 88 | 1006.8 |
| 20260505033715 | 46 | 92 | 1.7 | 1.7 | 0.00 | 0.00 | 0.00 | 87 | 1006.7 |
| 20260505033625 | 43 | 292 | 0.0 | 0.0 | 0.00 | 0.00 | 0.00 | 92 | 1008.6 |
| 20260505033213 | 47 | 128 | 1.7 | 1.7 | 0.00 | 0.00 | 0.00 | 87 | 1006.8 |
| 20260505032711 | 47 | 82 | 1.7 | 1.7 | 0.00 | 0.00 | 0.00 | 87 | 1006.8 |
| 20260505032623 | 43 | 292 | 0.0 | 0.0 | 0.00 | 0.00 | 0.00 | 92 | 1008.6 |
| 20260505032206 | 47 | 78 | 1.7 | 1.7 | 0.00 | 0.00 | 0.00 | 86 | 1006.9 |
| 20260505031704 | 47 | 87 | 1.7 | 1.7 | 0.00 | 0.00 | 0.00 | 87 | 1006.7 |
| 20260505031621 | 44 | 292 | 0.0 | 0.0 | 0.00 | 0.00 | 0.00 | 91 | 1008.8 |
| 20260505031200 | 46 | 92 | 0.9 | 1.7 | 0.00 | 0.00 | 0.00 | 88 | 1006.7 |
| 20260505030657 | 46 | 113 | 0.9 | 1.7 | 0.00 | 0.00 | 0.00 | 88 | 1006.9 |
| 20260505030623 | 44 | 292 | 0.0 | 0.0 | 0.00 | 0.00 | 0.00 | 91 | 1008.9 |
| 20260505030153 | 46 | 109 | 1.7 | 1.7 | 0.00 | 0.00 | 0.00 | 87 | 1007.1 |
| 20260505025722 | 44 | 292 | 0.0 | 0.0 | 0.00 | 0.00 | 0.00 | 91 | 1008.9 |
| 20260505025649 | 46 | 91 | 0.9 | 1.7 | 0.00 | 0.00 | 0.00 | 88 | 1007.0 |
| 20260505025148 | 46 | 93 | 1.7 | 1.7 | 0.00 | 0.00 | 0.00 | 89 | 1006.8 |
| 20260505024723 | 45 | 292 | 0.0 | 0.0 | 0.00 | 0.00 | 0.00 | 91 | 1008.9 |
| 20260505024645 | 46 | 80 | 1.7 | 1.7 | 0.00 | 0.00 | 0.00 | 89 | 1006.9 |
| 20260505024142 | 46 | 74 | 0.9 | 1.7 | 0.00 | 0.00 | 0.00 | 89 | 1006.9 |
| 20260505023723 | 45 | 292 | 0.0 | 0.0 | 0.00 | 0.00 | 0.00 | 91 | 1008.9 |
| 20260505023639 | 46 | 83 | 1.7 | 1.7 | 0.00 | 0.00 | 0.00 | 89 | 1007.1 |
| 20260505023137 | 46 | 82 | 1.7 | 1.7 | 0.00 | 0.00 | 0.00 | 88 | 1007.3 |
| 20260505022634 | 47 | 73 | 0.9 | 1.7 | 0.00 | 0.00 | 0.00 | 88 | 1007.0 |
| 20260505022131 | 47 | 78 | 0.9 | 1.7 | 0.00 | 0.00 | 0.00 | 87 | 1007.2 |
| 20260505021627 | 47 | 84 | 0.9 | 1.7 | 0.00 | 0.00 | 0.00 | 87 | 1007.1 |
| 20260505021124 | 48 | 110 | 0.9 | 0.9 | 0.00 | 0.00 | 0.00 | 86 | 1007.0 |
| 20260505020825 | 47 | 292 | 0.0 | 0.0 | 0.00 | 0.00 | 0.00 | 90 | 1008.9 |
| 20260505020620 | 48 | 59 | 0.0 | 0.0 | 0.00 | 0.00 | 0.00 | 85 | 1007.3 |
| 20260505020116 | 48 | 137 | 0.9 | 1.7 | 0.00 | 0.00 | 0.00 | 85 | 1007.1 |
| 20260505015923 | 47 | 292 | 0.0 | 0.0 | 0.00 | 0.00 | 0.00 | 90 | 1008.9 |
| 20260505015824 | 46 | 292 | 0.0 | 0.0 | 0.00 | 0.00 | 0.00 | 89 | 1008.9 |
| 20260505015613 | 48 | 153 | 1.7 | 1.7 | 0.00 | 0.00 | 0.00 | 86 | 1007.2 |
| 20260505015110 | 49 | 135 | 0.0 | 0.0 | 0.00 | 0.00 | 0.00 | 84 | 1007.0 |
| 20260505014823 | 47 | 292 | 0.0 | 0.0 | 0.00 | 0.00 | 0.00 | 90 | 1008.9 |
| 20260505014607 | 49 | 89 | 0.9 | 1.7 | 0.00 | 0.00 | 0.00 | 84 | 1007.2 |
| 20260505014104 | 49 | 96 | 0.9 | 1.7 | 0.00 | 0.00 | 0.00 | 84 | 1007.0 |
| 20260505013921 | 47 | 292 | 0.0 | 0.0 | 0.00 | 0.00 | 0.00 | 90 | 1009.0 |
| 20260505013601 | 49 | 26 | 1.7 | 1.7 | 0.00 | 0.00 | 0.00 | 83 | 1007.1 |
| 20260505013058 | 50 | 113 | 0.0 | 1.7 | 0.00 | 0.00 | 0.00 | 81 | 1006.9 |
| 20260505012556 | 49 | 78 | 1.7 | 1.7 | 0.00 | 0.00 | 0.00 | 81 | 1006.6 |
| 20260505012053 | 49 | 102 | 0.9 | 1.7 | 0.00 | 0.00 | 0.00 | 82 | 1007.0 |
| 20260505011924 | 48 | 292 | 0.0 | 0.0 | 0.00 | 0.00 | 0.00 | 89 | 1008.9 |
| 20260505011548 | 49 | 72 | 1.7 | 1.7 | 0.00 | 0.00 | 0.00 | 82 | 1006.7 |
| 20260505011046 | 49 | 80 | 1.7 | 1.7 | 0.00 | 0.00 | 0.00 | 83 | 1006.9 |
| 20260505010922 | 48 | 292 | 0.0 | 0.0 | 0.00 | 0.00 | 0.00 | 88 | 1008.9 |
| 20260505010541 | 49 | 93 | 0.0 | 1.7 | 0.00 | 0.00 | 0.00 | 82 | 1006.8 |
| 20260505010038 | 50 | 119 | 0.0 | 1.7 | 0.00 | 0.00 | 0.00 | 82 | 1006.7 |
| 20260505005923 | 49 | 292 | 0.0 | 0.0 | 0.00 | 0.00 | 0.00 | 86 | 1008.8 |
| 20260505005534 | 50 | 91 | 0.0 | 0.9 | 0.00 | 0.00 | 0.00 | 82 | 1006.7 |
| 20260505005032 | 51 | 144 | 0.0 | 1.7 | 0.00 | 0.00 | 0.00 | 80 | 1006.7 |
| 20260505004923 | 49 | 292 | 0.0 | 0.0 | 0.00 | 0.00 | 0.00 | 86 | 1008.6 |
| 20260505004529 | 51 | 150 | 1.7 | 1.7 | 0.00 | 0.00 | 0.00 | 76 | 1006.6 |
| 20260505004026 | 52 | 80 | 0.0 | 1.7 | 0.00 | 0.00 | 0.00 | 76 | 1006.3 |
| 20260505003922 | 50 | 292 | 0.0 | 0.0 | 0.00 | 0.00 | 0.00 | 85 | 1008.2 |
| 20260505003523 | 52 | 77 | 0.9 | 0.9 | 0.00 | 0.00 | 0.00 | 76 | 1006.1 |
| 20260505003020 | 53 | 66 | 0.0 | 0.9 | 0.00 | 0.00 | 0.00 | 74 | 1006.1 |
| 20260505002923 | 51 | 292 | 0.0 | 0.0 | 0.00 | 0.00 | 0.00 | 84 | 1008.2 |
| 20260505002515 | 53 | 89 | 0.0 | 1.7 | 0.00 | 0.00 | 0.00 | 73 | 1006.1 |
| 20260505002014 | 53 | 93 | 1.7 | 1.7 | 0.00 | 0.00 | 0.00 | 71 | 1006.0 |
| 20260505001511 | 53 | 104 | 1.7 | 1.7 | 0.00 | 0.00 | 0.00 | 71 | 1006.1 |
| 20260505001023 | 51 | 292 | 0.0 | 0.0 | 0.00 | 0.00 | 0.00 | 79 | 1007.9 |
| 20260505001008 | 53 | 100 | 0.9 | 1.7 | 0.00 | 0.00 | 0.00 | 71 | 1005.8 |
| 20260505000923 | 51 | 292 | 0.0 | 0.0 | 0.00 | 0.00 | 0.00 | 78 | 1007.9 |
| 20260505000822 | 52 | 292 | 0.0 | 0.0 | 0.00 | 0.00 | 0.00 | 78 | 1007.9 |
| 20260505000506 | 54 | 103 | 0.0 | 0.9 | 0.00 | 0.00 | 0.00 | 71 | 1005.7 |
| 20260505000003 | 54 | 89 | 0.9 | 1.7 | 0.00 | 0.00 | 0.00 | 69 | 1005.8 |
| 20260504235823 | 53 | 292 | 0.0 | 0.0 | 0.00 | 0.00 | 0.00 | 78 | 1007.9 |
| 20260504235500 | 55 | 99 | 0.9 | 1.7 | 0.00 | 0.00 | 0.00 | 69 | 1005.8 |
| 20260504234956 | 55 | 87 | 0.9 | 1.7 | 0.00 | 0.00 | 0.00 | 70 | 1005.8 |
| 20260504234823 | 54 | 292 | 0.0 | 0.0 | 0.00 | 0.00 | 0.00 | 78 | 1007.9 |
| 20260504234453 | 55 | 92 | 1.7 | 1.7 | 0.00 | 0.00 | 0.00 | 68 | 1005.9 |
| 20260504233950 | 55 | 88 | 1.7 | 1.7 | 0.00 | 0.00 | 0.00 | 69 | 1005.6 |
| 20260504233923 | 55 | 292 | 0.0 | 0.0 | 0.00 | 0.00 | 0.00 | 74 | 1007.9 |
| 20260504233445 | 56 | 101 | 0.9 | 0.9 | 0.00 | 0.00 | 0.00 | 68 | 1005.6 |
| 20260504233021 | 56 | 292 | 0.0 | 0.0 | 0.00 | 0.00 | 0.00 | 69 | 1007.6 |
| 20260504232943 | 56 | 84 | 0.9 | 1.7 | 0.00 | 0.00 | 0.00 | 67 | 1005.7 |
| 20260504232440 | 57 | 111 | 0.0 | 0.9 | 0.00 | 0.00 | 0.00 | 67 | 1005.6 |
| 20260504232023 | 57 | 292 | 0.0 | 0.0 | 0.00 | 0.00 | 0.00 | 66 | 1007.5 |
| 20260504231937 | 57 | 107 | 0.0 | 0.9 | 0.00 | 0.00 | 0.00 | 65 | 1005.5 |
| 20260504231433 | 58 | 89 | 0.0 | 1.7 | 0.00 | 0.00 | 0.00 | 64 | 1005.4 |
| 20260504231023 | 59 | 292 | 0.0 | 0.0 | 0.00 | 0.00 | 0.00 | 63 | 1007.5 |
| 20260504230929 | 59 | 89 | 0.0 | 0.9 | 0.00 | 0.00 | 0.00 | 63 | 1005.3 |
| 20260504230426 | 60 | 118 | 0.0 | 0.0 | 0.00 | 0.00 | 0.00 | 62 | 1005.3 |
| 20260504230122 | 60 | 292 | 0.0 | 0.0 | 0.00 | 0.00 | 0.00 | 59 | 1007.3 |
| 20260504225926 | 60 | 77 | 0.0 | 0.0 | 0.00 | 0.00 | 0.00 | 60 | 1005.2 |
| 20260504225422 | 61 | 84 | 0.0 | 0.0 | 0.00 | 0.00 | 0.00 | 54 | 1005.4 |
| 20260504224919 | 61 | 0 | 0.0 | 0.9 | 0.00 | 0.00 | 0.00 | 54 | 1005.3 |
| 20260504224415 | 61 | 249 | 0.0 | 2.6 | 0.00 | 0.00 | 0.00 | 53 | 1005.2 |
| 20260504224221 | 61 | 294 | 0.9 | 4.3 | 0.00 | 0.00 | 0.00 | 55 | 1007.2 |
| 20260504223913 | 61 | 354 | 0.9 | 1.7 | 0.00 | 0.00 | 0.00 | 53 | 1005.2 |
| 20260504223408 | 62 | 10 | 1.7 | 1.7 | 0.00 | 0.00 | 0.00 | 52 | 1005.1 |
| 20260504223224 | 62 | 270 | 0.0 | 0.0 | 0.00 | 0.00 | 0.00 | 54 | 1007.2 |
| 20260504222904 | 62 | 308 | 1.7 | 1.7 | 0.00 | 0.00 | 0.00 | 50 | 1005.1 |
| 20260504222402 | 62 | 288 | 0.0 | 4.3 | 0.00 | 0.00 | 0.00 | 49 | 1004.9 |
| 20260504222223 | 62 | 292 | 0.0 | 0.9 | 0.00 | 0.00 | 0.00 | 54 | 1007.2 |
| 20260504221900 | 62 | 249 | 1.7 | 3.5 | 0.00 | 0.00 | 0.00 | 51 | 1005.1 |
| 20260504221356 | 62 | 315 | 1.7 | 10.4 | 0.00 | 0.00 | 0.00 | 49 | 1005.0 |
| 20260504221321 | 62 | 318 | 0.9 | 4.3 | 0.00 | 0.00 | 0.00 | 54 | 1007.1 |
| 20260504220854 | 63 | 243 | 2.6 | 3.5 | 0.00 | 0.00 | 0.00 | 49 | 1005.0 |
| 20260504220350 | 63 | 281 | 2.6 | 6.1 | 0.00 | 0.00 | 0.00 | 48 | 1005.2 |
| 20260504215847 | 63 | 272 | 1.7 | 2.6 | 0.00 | 0.00 | 0.00 | 51 | 1005.0 |
| 20260504215344 | 62 | 335 | 0.0 | 4.3 | 0.00 | 0.00 | 0.00 | 50 | 1005.0 |
| 20260504215324 | 62 | 294 | 0.9 | 3.5 | 0.00 | 0.00 | 0.00 | 54 | 1007.2 |
| 20260504214840 | 62 | 267 | 1.7 | 3.5 | 0.00 | 0.00 | 0.00 | 50 | 1005.1 |
| 20260504214337 | 62 | 236 | 1.7 | 3.5 | 0.00 | 0.00 | 0.00 | 50 | 1005.1 |
| 20260504214321 | 62 | 302 | 2.6 | 7.8 | 0.00 | 0.00 | 0.00 | 54 | 1007.2 |
| 20260504213833 | 62 | 280 | 0.9 | 3.5 | 0.00 | 0.00 | 0.00 | 50 | 1005.0 |
| 20260504213329 | 62 | 295 | 4.3 | 4.3 | 0.00 | 0.00 | 0.00 | 49 | 1005.1 |
| 20260504212827 | 64 | 345 | 3.5 | 7.8 | 0.00 | 0.00 | 0.00 | 48 | 1005.0 |
| 20260504212323 | 64 | 241 | 6.1 | 9.6 | 0.00 | 0.00 | 0.00 | 47 | 1004.9 |
| 20260504211821 | 64 | 245 | 6.1 | 7.0 | 0.00 | 0.00 | 0.00 | 47 | 1004.8 |
| 20260504211316 | 64 | 305 | 2.6 | 6.1 | 0.00 | 0.00 | 0.00 | 48 | 1004.6 |
| 20260504210814 | 65 | 225 | 5.2 | 5.2 | 0.00 | 0.00 | 0.00 | 45 | 1004.7 |
| 20260504210521 | 62 | 325 | 3.5 | 7.0 | 0.00 | 0.00 | 0.00 | 55 | 1006.8 |
| 20260504210422 | 62 | 321 | 2.6 | 5.2 | 0.00 | 0.00 | 0.00 | 55 | 1006.6 |
| 20260504210311 | 64 | 306 | 2.6 | 13.9 | 0.00 | 0.00 | 0.00 | 48 | 1004.6 |
| 20260504205809 | 63 | 257 | 1.7 | 11.3 | 0.00 | 0.00 | 0.00 | 47 | 1004.8 |
| 20260504205521 | 62 | 257 | 1.7 | 6.1 | 0.00 | 0.00 | 0.00 | 54 | 1006.5 |
| 20260504205306 | 63 | 301 | 7.0 | 10.4 | 0.00 | 0.00 | 0.00 | 49 | 1004.7 |
| 20260504204804 | 63 | 335 | 1.7 | 8.7 | 0.00 | 0.00 | 0.00 | 50 | 1004.8 |
| 20260504204523 | 62 | 302 | 4.3 | 7.8 | 0.00 | 0.00 | 0.00 | 54 | 1006.5 |
| 20260504204302 | 63 | 336 | 3.5 | 5.2 | 0.00 | 0.00 | 0.00 | 50 | 1004.6 |
| 20260504203801 | 63 | 321 | 4.3 | 8.7 | 0.00 | 0.00 | 0.00 | 51 | 1004.7 |
| 20260504203524 | 63 | 264 | 1.7 | 3.5 | 0.00 | 0.00 | 0.00 | 54 | 1006.7 |
| 20260504203258 | 64 | 318 | 2.6 | 7.8 | 0.00 | 0.00 | 0.00 | 48 | 1004.6 |
| 20260504202758 | 63 | 296 | 3.5 | 8.7 | 0.00 | 0.00 | 0.00 | 50 | 1004.5 |
| 20260504202256 | 64 | 249 | 3.5 | 3.5 | 0.00 | 0.00 | 0.00 | 48 | 1004.6 |
| 20260504201753 | 62 | 340 | 1.7 | 7.8 | 0.00 | 0.00 | 0.00 | 51 | 1004.6 |
| 20260504201525 | 62 | 215 | 0.9 | 3.5 | 0.00 | 0.00 | 0.00 | 54 | 1006.8 |
| 20260504201250 | 61 | 273 | 7.0 | 10.4 | 0.00 | 0.00 | 0.00 | 52 | 1004.6 |
| 20260504200748 | 61 | 272 | 8.7 | 13.0 | 0.00 | 0.00 | 0.00 | 51 | 1004.6 |
| 20260504200622 | 63 | 302 | 3.5 | 8.7 | 0.00 | 0.00 | 0.00 | 55 | 1006.5 |
| 20260504200243 | 62 | 264 | 4.3 | 6.1 | 0.00 | 0.00 | 0.00 | 53 | 1004.4 |
| 20260504195740 | 63 | 254 | 5.2 | 10.4 | 0.00 | 0.00 | 0.00 | 49 | 1004.4 |
| 20260504195623 | 62 | 212 | 1.7 | 6.1 | 0.00 | 0.01 | 0.00 | 55 | 1006.5 |
| 20260504195236 | 63 | 232 | 6.1 | 12.2 | 0.00 | 0.00 | 0.00 | 49 | 1004.4 |
| 20260504194733 | 64 | 295 | 3.5 | 5.2 | 0.00 | 0.00 | 0.00 | 48 | 1004.4 |
| 20260504194722 | 64 | 315 | 2.6 | 6.1 | 0.00 | 0.01 | 0.00 | 55 | 1006.2 |
| 20260504194229 | 63 | 238 | 8.7 | 13.0 | 0.00 | 0.00 | 0.00 | 51 | 1004.4 |
| 20260504193726 | 62 | 229 | 3.5 | 12.2 | 0.00 | 0.00 | 0.00 | 51 | 1004.3 |
| 20260504193722 | 64 | 352 | 3.5 | 11.3 | 0.00 | 0.01 | 0.00 | 58 | 1006.4 |
| 20260504193223 | 62 | 301 | 7.8 | 11.3 | 0.00 | 0.00 | 0.00 | 52 | 1004.3 |
| 20260504192722 | 62 | 267 | 3.5 | 9.6 | 0.00 | 0.01 | 0.00 | 59 | 1006.5 |
| 20260504192219 | 61 | 259 | 7.0 | 7.8 | 0.00 | 0.00 | 0.00 | 56 | 1004.4 |
| 20260504191723 | 61 | 198 | 1.7 | 3.5 | 0.00 | 0.01 | 0.00 | 58 | 1006.3 |
| 20260504191718 | 61 | 256 | 5.2 | 15.6 | 0.00 | 0.00 | 0.00 | 55 | 1004.5 |
| 20260504191214 | 61 | 288 | 5.2 | 18.2 | 0.00 | 0.00 | 0.00 | 57 | 1004.3 |
| 20260504190723 | 60 | 317 | 2.6 | 5.2 | 0.00 | 0.01 | 0.00 | 62 | 1006.3 |
| 20260504190709 | 62 | 278 | 5.2 | 8.7 | 0.00 | 0.00 | 0.00 | 57 | 1004.5 |
| 20260504190206 | 61 | 272 | 4.3 | 11.3 | 0.00 | 0.00 | 0.00 | 57 | 1004.5 |
| 20260504185821 | 59 | 322 | 1.7 | 4.3 | 0.00 | 0.02 | 0.00 | 66 | 1006.6 |
| 20260504185703 | 61 | 220 | 7.0 | 9.6 | 0.00 | 0.00 | 0.00 | 57 | 1004.7 |
| 20260504185159 | 60 | 244 | 6.1 | 10.4 | 0.00 | 0.00 | 0.00 | 59 | 1004.7 |
| 20260504184655 | 58 | 53 | 1.7 | 6.1 | 0.00 | 0.00 | 0.00 | 64 | 1004.9 |
| 20260504184150 | 57 | 263 | 6.1 | 9.6 | 0.00 | 0.00 | 0.00 | 63 | 1005.0 |
| 20260504183921 | 58 | 259 | 0.0 | 2.6 | 0.00 | 0.04 | 0.00 | 65 | 1007.2 |
| 20260504183647 | 57 | 225 | 2.6 | 7.8 | 0.00 | 0.00 | 0.00 | 64 | 1004.8 |
| 20260504183145 | 58 | 262 | 5.2 | 11.3 | 0.00 | 0.00 | 0.00 | 63 | 1004.9 |
| 20260504182643 | 57 | 257 | 2.6 | 7.8 | 0.00 | 0.00 | 0.00 | 65 | 1005.0 |
| 20260504182140 | 56 | 279 | 4.3 | 7.8 | 0.00 | 0.00 | 0.00 | 67 | 1004.9 |
| 20260504181922 | 57 | 252 | 0.9 | 3.5 | 0.00 | 0.06 | 0.00 | 66 | 1007.2 |
| 20260504181637 | 57 | 259 | 6.1 | 7.0 | 0.00 | 0.00 | 0.00 | 67 | 1005.1 |
| 20260504181135 | 56 | 241 | 4.3 | 8.7 | 0.00 | 0.00 | 0.00 | 67 | 1005.2 |
| 20260504180922 | 57 | 349 | 1.7 | 4.3 | 0.00 | 0.07 | 0.00 | 66 | 1007.3 |
| 20260504180634 | 56 | 221 | 6.1 | 9.6 | 0.00 | 0.00 | 0.00 | 67 | 1005.1 |
| 20260504180132 | 56 | 286 | 6.1 | 7.0 | 0.00 | 0.00 | 0.00 | 65 | 1005.3 |
| 20260504175629 | 56 | 265 | 3.5 | 8.7 | 0.00 | 0.00 | 0.00 | 67 | 1005.2 |
| 20260504175125 | 56 | 298 | 7.0 | 11.3 | 0.00 | 0.00 | 0.00 | 65 | 1005.3 |
| 20260504174923 | 56 | 313 | 0.9 | 6.1 | 0.00 | 0.08 | 0.00 | 68 | 1007.4 |
| 20260504174624 | 56 | 226 | 1.7 | 5.2 | 0.00 | 0.00 | 0.00 | 66 | 1005.5 |
| 20260504174120 | 56 | 243 | 4.3 | 7.0 | 0.00 | 0.00 | 0.00 | 67 | 1005.3 |
| 20260504173922 | 56 | 299 | 0.9 | 3.5 | 0.00 | 0.09 | 0.00 | 67 | 1007.5 |
| 20260504173617 | 55 | 214 | 7.8 | 8.7 | 0.00 | 0.00 | 0.00 | 66 | 1005.4 |
| 20260504173115 | 56 | 253 | 5.2 | 6.1 | 0.00 | 0.00 | 0.00 | 67 | 1005.5 |
| 20260504172611 | 55 | 275 | 2.6 | 6.1 | 0.00 | 0.00 | 0.00 | 68 | 1005.6 |
| 20260504172108 | 55 | 223 | 3.5 | 12.2 | 0.00 | 0.00 | 0.00 | 67 | 1005.3 |
| 20260504172022 | 56 | 314 | 1.7 | 5.2 | 0.00 | 0.10 | 0.00 | 63 | 1007.4 |
| 20260504171604 | 55 | 273 | 3.5 | 9.6 | 0.00 | 0.00 | 0.00 | 65 | 1005.4 |
| 20260504171101 | 56 | 254 | 7.8 | 8.7 | 0.00 | 0.00 | 0.00 | 62 | 1005.3 |
| 20260504171024 | 57 | 292 | 0.9 | 2.6 | 0.00 | 0.11 | 0.00 | 60 | 1007.2 |
| 20260504170557 | 57 | 294 | 3.5 | 6.1 | 0.00 | 0.00 | 0.00 | 59 | 1005.1 |
| 20260504170122 | 57 | 159 | 1.7 | 3.5 | 0.00 | 0.11 | 0.00 | 58 | 1007.2 |
| 20260504151025 | 58 | 188 | 1.7 | 3.5 | 0.00 | 0.22 | 0.00 | 54 | 1007.2 |
| 20260504150941 | 57 | 230 | 2.6 | 4.3 | 0.00 | 0.00 | 0.00 | 49 | 1005.2 |
| 20260504150437 | 57 | 297 | 5.2 | 5.2 | 0.00 | 0.00 | 0.00 | 50 | 1005.2 |
| 20260504141123 | 58 | 250 | 1.7 | 3.5 | 0.00 | 0.26 | 0.00 | 53 | 1008.2 |
| 20260504140904 | 55 | 133 | 7.0 | 7.8 | 0.00 | 0.00 | 0.00 | 48 | 1006.2 |
| 20260504140400 | 54 | 239 | 5.2 | 5.2 | 0.00 | 0.00 | 0.00 | 49 | 1006.2 |
| 20260504130430 | 56 | 186 | 2.6 | 5.2 | 0.00 | 0.30 | 0.00 | 52 | 1008.9 |
| 20260504130325 | 53 | 290 | 1.7 | 7.0 | 0.00 | 0.00 | 0.00 | 48 | 1006.7 |
| 20260504120248 | 47 | 131 | 0.0 | 5.2 | 0.00 | 0.00 | 0.00 | 57 | 1007.1 |